Regional Weather Roundup
Issued by NWS

Current Version | Previous Version | Graphics & Text | Print | Product List | Glossary On
Versions: 1 2 3 4 5 6 7 8 9 10 11 12 13 14 15 16 17 18 19 20 21 22 23 24 25 26 27 28 29 30 31 32 33 34 35 36 37 38 39 40 41 42 43 44 45 46 47 48 49 50
000
ASHW40 PHFO 270412
RWRHI

WEATHER ROUNDUP FOR HAWAII
NATIONAL WEATHER SERVICE HONOLULU HI
600 PM HST WED JUN 26 2019

THIS IS AN AUTOMATED REPORT THAT HAS NOT BEEN QUALITY CONTROLLED.

NOTE..."FAIR" INDICATES FEW OR NO CLOUDS BELOW 12,000 FEET WITH NO
SIGNIFICANT WEATHER AND/OR OBSTRUCTIONS TO VISIBILITY.

* - THESE SITES REPORT LIMITED FIELDS
# - BUOY DATA PROVIDED BY PACIFIC ISLANDS OCEAN OBSERVING SYSTEM.

HIZ001>004-270500-
KAUAI-NIIHAU-

CITY           SKY/WX    TMP DP  RH WIND       PRES   REMARKS
LIHUE APT      LGT RAIN  79  71  76 S7        29.85R
PORT ALLEN*      N/A     79 N/A N/A SE8         N/A
POIPU*           N/A     79 N/A N/A SW5         N/A
PRINCEVILLE*     N/A     81 N/A N/A S7G17       N/A
KOKOLE POINT*  NOT AVBL
MOLOAA DAIRY*    N/A     79  72  78 S3G14       N/A
WAIMEA HTS*    NOT AVBL
PUU OPAE*      NOT AVBL
PUU LUA*       NOT AVBL
MAKAHA RIDGE*  NOT AVBL
$$

HIZ005>011-270500-
OAHU-

CITY           SKY/WX    TMP DP  RH WIND       PRES   REMARKS
HONOLULU       LGT RAIN  77  72  84 E7        29.86R
KALAELOA       PTSUNNY  N/A N/A N/A S7        29.88R
KANEOHE MCB    SUNNY     80  72  76 S9        29.83R
WHEELER FIELD  LGT RAIN  77  73  88 S3        29.87R
BELLOWS*       NOT AVBL
KAHUKU*        NOT AVBL
WHEELER*       NOT AVBL
WAIANAE HARBOR NOT AVBL
DILLINGHAM*      N/A     84  79  84 CALM        N/A  HX  96
KAHUKU TRN*      N/A     79  72  78 NE1         N/A
KAWAILOA*        N/A     73  66  78 S3G12       N/A
KII*             N/A     81  72  74 N3          N/A
MAKUA RANGE*   NOT AVBL
OAHU FOREST NW NOT AVBL
SCHOFIELD BRK*   N/A     79  72  78 S5          N/A
SCHOFIELD S*   NOT AVBL
WAIANAE VLY*   NOT AVBL
KUAOKALA*      NOT AVBL
HONOULIUULI*   NOT AVBL
MOKUOLOE IS*     N/A     81 N/A N/A S2          N/A
PALEHUA*       NOT AVBL
WAIAWA PHB*    NOT AVBL
$$

HIZ012>013-270500-
MOLOKAI-

CITY           SKY/WX    TMP DP  RH WIND       PRES   REMARKS
MOLOKAI AIRPT  SUNNY     83  72  69 S9        29.88S
KALAUPAPA      NOT AVBL
MAKAPULAPAI*   NOT AVBL
MOLOKAI 1*     NOT AVBL
PUU ALII*      NOT AVBL
$$

HIZ016-270500-
KAHOOLAWE-

CITY           SKY/WX    TMP DP  RH WIND       PRES   REMARKS
KAHOOLAWE*     NOT AVBL
HAKIOAWA*      NOT AVBL
HONOKANAIA*    NOT AVBL
KANELOA*         N/A     82  68  61 E10G16    29.94F
KEALIALALO*    NOT AVBL
LUA MAKIKA*    NOT AVBL
$$

HIZ014>015-270500-
LANAI-

CITY           SKY/WX    TMP DP  RH WIND       PRES   REMARKS
LANAI CITY     FAIR      76  73  91 SE5       29.94R
LANAI 1*       NOT AVBL
$$

HIZ017>028-270500-
MAUI-

CITY           SKY/WX    TMP DP  RH WIND       PRES   REMARKS
KAHULUI        MOSUNNY   85  69  58 W9        29.86R
KAPALUA-W MAUI PTSUNNY   79  70  73 VRB7      29.89R
HANA AIRPORT   MOSUNNY   79  72  78 S3        29.91R
HANA*            N/A     81 N/A N/A SE6G13      N/A
HALEAKALA SUMM   N/A     52  45  76 W10         N/A
MAALAEA BAY*   NOT AVBL
HALEAKALA*     NOT AVBL
KAUPO GAP*     NOT AVBL
KULA 1*          N/A     59  56  89 N2G8        N/A
$$

HIZ023>026-270500-
BIG ISLAND OF HAWAII COAST AND LOWER SLOPES-

CITY           SKY/WX    TMP DP  RH WIND       PRES   REMARKS
KAILUA KONA    PTSUNNY   84  70  62 NW13      29.85R
HILO           CLOUDY    81  69  67 SE9       29.88R
HONOKAA*       NOT AVBL
KAWAIHAE MWT*  NOT AVBL
KAWAIHAE*        N/A     82 N/A N/A W8          N/A
SOUTH POINT*   NOT AVBL
UPOLU AIRPORT* NOT AVBL
KAMUELA*       MOCLDY    77  63  61 E3        30.00R
HAKALAU*         N/A     60  60  98 MISG        N/A
KALOKO-HONOKO* NOT AVBL
PALI 2*          N/A     66  64  94 SE5         N/A
KEALAKOMO*       N/A     81  70  69 E6          N/A
KAUPULEHU*     NOT AVBL
KAPAPALA*        N/A     70  67  92 W3          N/A
LOWER KAHUKU*  NOT AVBL
PUHE CS*       NOT AVBL
PUHO CS*       NOT AVBL
PTA KEAMUKU*     N/A     72  63  73 NW3         N/A
WAIKOLOA*      NOT AVBL
$$

HIZ027>028-270500-
BIG ISLAND OF HAWAII INTERIOR AND SUMMMITS-

CITY           SKY/WX    TMP DP  RH WIND       PRES   REMARKS
BRADSHAW FIELD NOT AVBL
MK VISITOR CEN   N/A     52  46  82 W2          N/A
MAUNA KEA*       N/A     43  34  70 SW10        N/A
MAUNA LOA*     NOT AVBL
MAUNA LOA 1*   NOT AVBL
PTA KIPUKA*      N/A     64  59  82 NW3G12      N/A
PTA RANGE 17*    N/A     70  64  83 W3G12       N/A
PTA WEST*        N/A     72  66  83 N2G8        N/A
NENE CABIN*    NOT AVBL
AHUMOA*        NOT AVBL
PTA PORTABLE*  NOT AVBL
PUU MALI*        N/A     61  57  88 W5G10       N/A
$$

HIC003-270500-
NORTHWEST ISLANDS-

CITY           SKY/WX    TMP DP  RH WIND       PRES   REMARKS
MIDWAY ISLAND  PTSUNNY   79  70  73 N12       29.86R
MIDWAY NOS*    NOT AVBL
FRENCH FRIGATE NOT AVBL
$$

PHZ110>124-180-270500-
BUOY REPORTS

STATION/POSITION TIME  TEMP    WIND        PRES    WAVE   SWELL
                       AIR SEA DIR/SP/G            HT/PER HT/DIR
                 (UTC) (F)     (DEG/KT/KT) (MB)    (FT/S) (FT/D)
BUOY 51101       0350   75     130/ 10/ 12 1008.9F   4/ 8   3/150
BUOY 51100       NOT AVBL
BUOY 51002       0350                      1011.4R   5/10
BUOY 51003       NOT AVBL
BUOY 51004       0340      80                N/A     6/10
WAIMEA BAY#      0342      78                N/A     2/ 8
MOKAPU POINT#    0330      79                N/A     4/ 8   2/100
LANAI#           0330      82                N/A     3/13   2/180
BARBERS PT#      0330      81                N/A     3/17   2/200
PAUWELA#         NOT AVBL
HILO#            0346      80                N/A     5/ 9   2/ 90
KANEOHE BAY#     0354      80                N/A     3/ 6
KANEOHE BAY 2#   NOT AVBL
HANALEI#         0330                        N/A     3/ 9
KAHULUI HARBOR   0324   82     300/  8/ 10 1011.1
HONOLULU HARBOR  0324   77 81  170/  4/  8 1011.1
PEARL HARBOR#    0330      81                N/A     3/13   2/160
KILO NALU        NOT AVBL
HILO HARBOR      0330   81 79  120/  5/ 10 1011.3R
MOKUOLOE         0336   81 83  180/  4/  6 1010.8R
NAWILIWILI       0324   78 82  160/  4/ 10 1010.3
WHOTS BUOY       NOT AVBL
BUOY 51028       NOT AVBL
$$

......................KEY........................................
  SKY/WX - SKY CONDITIONS/PRESENT WEATHER
  TMP    - TEMPERATURE IN FAHRENHEIT
  DWPT   - DEWPOINT IN FAHRENHEIT
  RH     - RELATIVE HUMIDITY IN PERCENT
  WIND   - DIRECTION AND SPEED /MPH FOR ISLANDS...KTS FOR BUOYS/
  PRES   - MEAN SEA LEVEL PRESSURE IN INCHES OF HG
  VSB    - VISIBILITY IN MILES
  HX     - HEAT INDEX
  WCI    - WIND CHILL INDEX
  VRB    - VARIABLE WIND DIRECTION
  N/A    - NOT AVAILABLE



USA.gov is the U.S. government's official web portal to all federal, state and local government web resources and services.